Date String (YYYY-MM-DD hh:mm:ss) UTC,Instrument flags,Ambient pressure (hPa),Sample flow (lpm),Bypass flow (lpm),Sample temperature (°C),Ambient temperature (°C),ASC tube jacket temperature (°C),LED temperature (°C),Box temperature (°C),Sample RH (%),Span deviation,Mass concentration (μg/m³),Mass concentration (μg/m³),Mass concentration (μg/m³)
DateTimeUTC,F1_M11,P_M11,Q1_M11,Q2_M11,T1_M11,T2_M11,T3_M11,T4_M11,T5_M11,U1_M11,ZSPAN_M11,X0_M11,X2_M11,X1_M11
2021-12-20 00:00:00,,0823.6,5.01,0.00,25.3,24.3,00.0,34.4,26.8,03.4,0000.0,0001.62,0000.74,0000.58
2021-12-20 00:01:00,,0823.6,5.01,0.00,25.3,24.2,00.0,34.4,26.9,03.4,0000.0,0001.71,0000.78,0000.58
2021-12-20 00:02:00,,0823.6,4.98,0.00,25.3,24.2,00.0,34.4,26.8,03.4,0000.0,0001.42,0000.83,0000.59
2021-12-20 00:03:00,,0823.6,5.01,0.00,25.3,24.2,00.0,34.4,26.9,03.4,0000.0,0001.43,0000.84,0000.59
2021-12-20 00:04:00,,0823.7,5.00,0.00,25.3,24.2,00.0,34.3,26.9,03.4,0000.0,0001.35,0000.82,0000.59
2021-12-20 00:05:00,,0823.7,4.99,0.00,25.3,24.3,00.0,34.3,26.9,03.4,0000.0,0001.29,0000.81,0000.59
2021-12-20 00:06:00,,0823.7,5.01,0.00,25.3,24.3,00.0,34.3,26.9,03.4,0000.0,0001.35,0000.84,0000.61
2021-12-20 00:07:00,,0823.7,4.99,0.00,25.3,24.3,00.0,34.3,27.0,03.4,0000.0,0001.79,0000.87,0000.62
2021-12-20 00:08:00,,0823.7,5.00,0.00,25.3,24.3,00.0,34.3,27.0,03.4,0000.0,0002.01,0000.88,0000.62
2021-12-20 00:09:00,,0823.7,4.99,0.00,25.3,24.3,00.0,34.3,27.0,03.4,0000.0,0002.03,0000.89,0000.64
2021-12-20 00:10:00,,0823.7,5.00,0.00,25.3,24.3,00.0,34.3,27.0,03.4,0000.0,0001.94,0000.88,0000.65
2021-12-20 00:11:00,,0823.7,5.01,0.00,25.3,24.4,00.0,34.4,27.0,03.5,0000.0,0001.88,0000.88,0000.67
2021-12-20 00:12:00,,0823.7,5.00,0.00,25.3,24.3,00.0,34.3,27.0,03.5,0000.0,0001.86,0000.89,0000.68
2021-12-20 00:13:00,,0823.7,5.00,0.00,25.3,24.3,00.0,34.3,27.0,03.5,0000.0,0001.84,0000.88,0000.69
2021-12-20 00:14:00,,0823.7,5.01,0.00,25.3,24.3,00.0,34.3,27.0,03.4,0000.0,0001.82,0000.88,0000.70
2021-12-20 00:15:00,,0823.7,5.00,0.00,25.3,24.3,00.0,34.3,27.0,03.5,0000.0,0001.82,0000.89,0000.71
2021-12-20 00:16:00,,0823.7,5.00,0.00,25.3,24.4,00.0,34.3,27.0,03.5,0000.0,0001.82,0000.89,0000.71
2021-12-20 00:17:00,,0823.7,5.00,0.00,25.3,24.4,00.0,34.3,27.0,03.5,0000.0,0001.84,0000.90,0000.72
2021-12-20 00:18:00,,0823.7,5.00,0.00,25.3,24.4,00.0,34.3,27.0,03.5,0000.0,0001.41,0000.88,0000.71
2021-12-20 00:19:00,,0823.7,5.01,0.00,25.3,24.3,00.0,34.3,26.9,03.5,0000.0,0001.20,0000.87,0000.71
2021-12-20 00:20:00,,0823.7,5.00,0.00,25.3,24.3,00.0,34.3,26.9,03.5,0000.0,0001.15,0000.85,0000.70
2021-12-20 00:21:00,,0823.8,4.99,0.00,25.3,24.3,00.0,34.3,26.9,03.5,0000.0,0002.35,0000.82,0000.70
2021-12-20 00:22:00,,0823.8,5.02,0.00,25.3,24.3,00.0,34.3,26.9,03.5,0000.0,0002.49,0000.81,0000.69
2021-12-20 00:23:00,,0823.8,4.99,0.00,25.3,24.3,00.0,34.3,26.9,03.5,0000.0,0002.53,0000.83,0000.68
2021-12-20 00:24:00,,0823.8,5.01,0.00,25.3,24.3,00.0,34.3,27.0,03.5,0000.0,0002.49,0000.81,0000.67
2021-12-20 00:25:00,,0823.8,4.98,0.00,25.3,24.3,00.0,34.3,26.9,03.5,0000.0,0002.51,0000.81,0000.67
2021-12-20 00:26:00,,0823.7,5.01,0.00,25.3,24.3,00.0,34.3,26.9,03.6,0000.0,0002.52,0000.81,0000.67
2021-12-20 00:27:00,,0823.8,4.99,0.00,25.3,24.3,00.0,34.3,26.9,03.6,0000.0,0002.54,0000.82,0000.67
2021-12-20 00:28:00,,0823.8,4.99,0.00,25.3,24.3,00.0,34.3,26.9,03.6,0000.0,0002.53,0000.81,0000.66
2021-12-20 00:29:00,,0823.9,5.00,0.00,25.3,24.3,00.0,34.3,26.9,03.6,0000.0,0003.00,0000.81,0000.66
2021-12-20 00:30:00,,0824.0,5.00,0.00,25.2,24.2,00.0,34.3,26.9,03.6,0000.0,0004.01,0000.80,0000.65
2021-12-20 00:31:00,,0824.0,5.00,0.00,25.2,24.2,00.0,34.3,26.9,03.7,0000.0,0004.47,0000.81,0000.66
2021-12-20 00:32:00,,0824.0,5.02,0.00,25.2,24.2,00.0,34.3,26.9,03.7,0000.0,0003.59,0000.80,0000.65
2021-12-20 00:33:00,,0824.0,5.00,0.00,25.2,24.2,00.0,34.3,26.8,03.6,0000.0,0003.24,0000.81,0000.64
2021-12-20 00:34:00,,0824.0,4.98,0.00,25.2,24.2,00.0,34.3,26.8,03.6,0000.0,0003.18,0000.78,0000.64
2021-12-20 00:35:00,,0824.0,5.01,0.00,25.2,24.2,00.0,34.3,26.8,03.6,0000.0,0003.13,0000.76,0000.64
2021-12-20 00:36:00,,0824.1,4.98,0.00,25.2,24.2,00.0,34.3,26.8,03.6,0000.0,0003.12,0000.76,0000.64
2021-12-20 00:37:00,,0824.0,5.01,0.00,25.2,24.2,00.0,34.3,26.8,03.6,0000.0,0003.18,0000.78,0000.64
2021-12-20 00:38:00,,0824.0,5.00,0.00,25.2,24.2,00.0,34.3,26.8,03.6,0000.0,0003.27,0000.80,0000.66
2021-12-20 00:39:00,,0824.0,4.99,0.00,25.2,24.2,00.0,34.3,26.9,03.6,0000.0,0003.27,0000.81,0000.68
2021-12-20 00:40:00,,0824.0,5.00,0.00,25.2,24.2,00.0,34.3,26.9,03.6,0000.0,0003.58,0000.84,0000.69
2021-12-20 00:41:00,,0824.0,5.00,0.00,25.2,24.2,00.0,34.3,26.9,03.6,0000.0,0002.46,0000.85,0000.69
2021-12-20 00:42:00,,0824.0,5.01,0.00,25.2,24.2,00.0,34.3,26.9,03.6,0000.0,0002.24,0000.86,0000.70
2021-12-20 00:43:00,,0824.0,4.99,0.00,25.2,24.2,00.0,34.2,26.8,03.6,0000.0,0001.98,0000.87,0000.70
2021-12-20 00:44:00,,0823.9,5.00,0.00,25.2,24.2,00.0,34.2,26.8,03.6,0000.0,0001.93,0000.86,0000.71
2021-12-20 00:45:00,,0824.0,5.00,0.00,25.2,24.2,00.0,34.2,26.8,03.6,0000.0,0001.91,0000.85,0000.70
2021-12-20 00:46:00,,0824.0,5.00,0.00,25.1,24.2,00.0,34.2,26.8,03.5,0000.0,0002.10,0000.89,0000.71
2021-12-20 00:47:00,,0824.0,5.01,0.00,25.1,24.2,00.0,34.2,26.8,03.6,0000.0,0002.28,0000.94,0000.71
2021-12-20 00:48:00,,0824.0,4.99,0.00,25.1,24.1,00.0,34.2,26.7,03.6,0000.0,0002.28,0000.94,0000.71
2021-12-20 00:49:00,,0824.1,5.03,0.00,25.1,24.1,00.0,34.2,26.7,03.6,0000.0,0002.13,0000.91,0000.71
2021-12-20 00:50:00,,0824.0,4.98,0.00,25.1,24.1,00.0,34.2,26.7,03.6,0000.0,0002.16,0000.92,0000.70
2021-12-20 00:51:00,,0824.0,5.01,0.00,25.1,24.1,00.0,34.2,26.8,03.6,0000.0,0002.07,0000.93,0000.69
2021-12-20 00:52:00,,0824.0,4.99,0.00,25.1,24.1,00.0,34.2,26.7,03.6,0000.0,0001.80,0000.92,0000.69
2021-12-20 00:53:00,,0824.0,5.00,0.00,25.1,24.1,00.0,34.2,26.7,03.6,0000.0,0001.85,0000.91,0000.69
2021-12-20 00:54:00,,0824.0,5.00,0.00,25.1,24.1,00.0,34.2,26.7,03.6,0000.0,0001.87,0000.93,0000.69
2021-12-20 00:55:00,,0824.0,4.98,0.00,25.1,24.1,00.0,34.2,26.6,03.6,0000.0,0001.87,0000.94,0000.69
2021-12-20 00:56:00,,0824.0,5.01,0.00,25.1,24.1,00.0,34.1,26.6,03.6,0000.0,0001.93,0000.95,0000.70
2021-12-20 00:57:00,,0824.0,5.00,0.00,25.1,24.1,00.0,34.1,26.7,03.6,0000.0,0001.83,0000.94,0000.70
2021-12-20 00:58:00,,0823.9,5.01,0.00,25.1,24.1,00.0,34.1,26.7,03.6,0000.0,0001.67,0000.90,0000.69
2021-12-20 00:59:00,,0824.0,4.98,0.00,25.1,24.1,00.0,34.1,26.6,03.6,0000.0,0001.65,0000.89,0000.69
